Flag for Canada Weather past 2 weeks in Prince Rupert, British Columbia, Canada

Now
66 °F

Sunny.


Feels Like: 66 °F
Forecast: 55 / 76 °F
Wind: 6 mph from West

Location: Prince Rupert

Current Time: Jul 6, 2015 at 1:16:29 PM

Latest Report: Jul 6, 2015 at 12:00 PM


Visibility: 9 mi

Pressure: 30.00 "Hg

Humidity: 78%

Dew point: 59 °F

Location of Prince RupertLocation

Historic Weather in Prince Rupert — Graph

°F

Prince Rupert temperature yesterday

Maximum temperature yesterday: 70 °F (at 1:00 PM)
Minimum temperature yesterday: 54 °F (at 4:45 AM)
Average temperature yesterday: 61 °F

Past Weeks' High & Low Weather Summary

 TemperatureHumidityPressure
High72 °F (Jun 28, 6:00 PM)100% (Jun 22, 3:00 AM)30.29 "Hg (Jun 22, 3:00 AM)
Low50 °F (Jun 22, 4:00 AM)46% (Jun 22, 7:00 PM)29.90 "Hg (Jun 25, 9:00 AM)
Average60 °F82%30.10 "Hg
* Reported Jun 21 12:00 Noon — Jul 6 12:00 Noon, Prince Rupert, Weather by CustomWeather, © 2015

Note: Actual official high and low records may vary slightly from our data, if they occured in-between our weather recording intervals... More about our weather records

Advertising

Prince Rupert weather history for previous 24 hours

 ConditionsComfort  
Time TempWeatherWind HumidityBarometerVisibility
12:00 PM
Mon, Jul 6
66 °FSunny.6 mph78%30.00 "Hg9 mi
11:00 AM66 °FSunny.6 mph73%29.99 "Hg9 mi
10:00 AM61 °FSunny.5 mph88%29.99 "Hg9 mi
9:00 AM63 °FSunny.3 mph83%29.99 "Hg9 mi
8:00 AM61 °FSunny.3 mph88%29.99 "Hg7 mi
7:47 AM59 °FFog.3 mph88%29.99 "Hg6 mi
7:00 AM57 °FFog.6 mph94%29.98 "Hg5 mi
6:00 AM55 °FFog.5 mph100%29.98 "Hg5 mi
5:00 AM57 °FFog.3 mph94%29.98 "Hg5 mi
4:00 AM57 °FFog.3 mph94%29.99 "Hg5 mi
3:00 AM57 °FFog.3 mph94%29.99 "Hg6 mi
2:00 AM57 °FFog.5 mph94%29.98 "Hg6 mi
1:00 AM57 °FFog.6 mph94%29.98 "Hg6 mi
12:00 AM57 °FFog.6 mph94%29.99 "Hg6 mi
11:00 PM
Sun, Jul 5
57 °FFog.5 mph94%30.00 "Hg6 mi
10:00 PM59 °FFog.3 mph88%29.99 "Hg6 mi
9:00 PM61 °FSunny.2 mph83%29.99 "Hg9 mi
8:00 PM63 °FSunny.5 mph83%29.99 "Hg9 mi
7:00 PM66 °FSunny.3 mph73%30.00 "Hg9 mi
6:00 PM66 °FSunny.9 mph68%30.01 "Hg9 mi
5:00 PM66 °FSunny.7 mph73%30.01 "Hg9 mi
4:00 PM66 °FSunny.9 mph73%30.02 "Hg9 mi
3:00 PM68 °FSunny.12 mph69%30.03 "Hg9 mi
2:00 PM68 °FSunny.7 mph69%30.04 "Hg9 mi
1:00 PM70 °FSunny.9 mph60%30.04 "Hg9 mi
Weather by CustomWeather, © 2015

See weather overviewHow to use our weather pages